Home > Weather > Kemerovo > Past weeks

Flag for Russia Weather for the Past 2 Weeks in Kemerovo, Russia

Now
39 °F

Sunny.


Feels Like: 34 °F
Forecast: 30 / 56 °F
Wind: 8 mph from West

Location: Kemerovo

Current Time: May 3, 2016 at 8:31:30 PM

Latest Report: May 3, 2016 at 7:30 PM


Visibility: 10 mi

Pressure: 30.27 "Hg

Humidity: 39%

Dew Point: 16 °F

Location of KemerovoLocation

Historic Weather in Kemerovo — Graph

°F

Kemerovo Temperature Yesterday

Maximum temperature yesterday: 41 °F (at 12:00 AM)
Minimum temperature yesterday: 30 °F (at 11:00 PM)
Average temperature yesterday: 37 °F

High & Low Weather Summary for the Past Weeks

 TemperatureHumidityPressure
High73 °F (Apr 21, 3:30 PM)100% (Apr 23, 5:30 AM)30.27 "Hg (Apr 23, 5:30 AM)
Low25 °F (May 3, 3:30 AM)19% (Apr 20, 6:30 PM)29.80 "Hg (Apr 21, 11:00 PM)
Average48 °F61%29.95 "Hg
* Reported Apr 18 7:00 PM — May 3 7:30 PM, Kemerovo, Weather by CustomWeather, © 2016

Note: Actual official high and low records may vary slightly from our data, if they occured in-between our weather recording intervals... More about our weather records

Advertising

Kemerovo Weather History for the Previous 24 Hours

Scroll right to see more
 ConditionsComfort  
Time TempWeatherWind HumidityBarometerVisibility
7:30 PM
Tue, May 3
39 °FSunny.8 mph39%30.27 "Hg10 mi
7:00 PM39 °FSunny.8 mph39%30.27 "Hg10 mi
6:30 PM41 °FSunny.10 mph36%30.27 "Hg10 mi
6:00 PM39 °FPassing clouds.8 mph39%30.27 "HgN/A
5:30 PM41 °FPassing clouds.8 mph36%30.27 "HgN/A
5:00 PM39 °FPassing clouds.8 mph39%30.27 "HgN/A
4:30 PM41 °FPassing clouds.8 mph36%30.24 "HgN/A
4:00 PM41 °FPassing clouds.10 mph36%30.24 "HgN/A
3:30 PM39 °FPassing clouds.8 mph39%30.27 "HgN/A
3:00 PM37 °FPassing clouds.8 mph38%30.27 "HgN/A
2:30 PM37 °FScattered clouds.6 mph41%30.27 "HgN/A
2:00 PM36 °FScattered clouds.6 mph38%30.27 "HgN/A
1:30 PM36 °FScattered clouds.8 mph41%30.24 "HgN/A
1:00 PM32 °FScattered clouds.8 mph44%30.27 "HgN/A
12:30 PM32 °FScattered clouds.8 mph44%30.27 "HgN/A
12:00 PM32 °FScattered clouds.6 mph44%30.27 "HgN/A
11:30 AM30 °FPartly sunny.8 mph47%30.24 "HgN/A
11:00 AM30 °FPartly sunny.8 mph47%30.24 "HgN/A
10:30 AM30 °FOvercast.8 mph47%30.24 "HgN/A
10:00 AM28 °FOvercast.8 mph47%30.24 "HgN/A
9:30 AM28 °FOvercast.10 mph47%30.21 "HgN/A
8:30 AM27 °FOvercast.10 mph54%30.21 "HgN/A
8:00 AM27 °FOvercast.10 mph54%30.18 "HgN/A
7:30 AM27 °FOvercast.10 mph59%30.18 "HgN/A
7:00 AM27 °FPartly sunny.8 mph59%30.18 "HgN/A
6:30 AM27 °FPartly sunny.8 mph59%30.15 "HgN/A
6:00 AM25 °FPassing clouds.6 mph63%30.15 "HgN/A
5:30 AM25 °FPassing clouds.8 mph63%30.15 "HgN/A
5:00 AM25 °FPassing clouds.8 mph63%30.12 "HgN/A
4:00 AM25 °FClear.8 mph63%30.12 "Hg10 mi
3:30 AM25 °FClear.10 mph63%30.09 "Hg10 mi
3:00 AM27 °FPassing clouds.13 mph64%30.09 "HgN/A
2:30 AM27 °FPassing clouds.15 mph59%30.09 "HgN/A
2:00 AM27 °FPassing clouds.15 mph59%30.07 "HgN/A
1:30 AM27 °FPassing clouds.13 mph59%30.07 "HgN/A
1:00 AM28 °FPassing clouds.15 mph55%30.07 "HgN/A
12:30 AM28 °FPassing clouds.15 mph55%30.07 "HgN/A
12:00 AM28 °FPassing clouds.20 mph55%30.04 "HgN/A
11:30 PM
Mon, May 2
30 °FPassing clouds.17 mph55%30.04 "HgN/A
11:00 PM30 °FPassing clouds.15 mph59%30.01 "HgN/A
10:30 PM34 °FPassing clouds.15 mph56%29.98 "HgN/A
10:00 PM36 °FPassing clouds.10 mph56%29.98 "HgN/A
9:30 PM36 °FPartly sunny.10 mph60%29.98 "HgN/A
9:00 PM36 °FPartly sunny.8 mph65%29.95 "HgN/A
8:30 PM36 °FPartly sunny.8 mph70%29.95 "HgN/A
8:00 PM36 °FPartly sunny.8 mph75%29.95 "HgN/A
Weather by CustomWeather, © 2016

See weather overviewHow to use our weather pages